Overview Statistics Trail Chart Weather Telemetry Raw packets
 

This is the latest recevied weather packets stored in our database for station/object KI4KWR-1. If no packets are shown the sender has not sent any weather packets the latest 10 day(s).

<< 21 22 23 24 25 26 27 >>
Time Temp. Humidity Pressure Rain* Wind** Luminosity Snow
1788125404 32.78° C 52% 989.3 hPa 0 mm - - -
1788124504 32.78° C 53% 989.3 hPa 0 mm - - -
1788123604 32.78° C 51% 989.5 hPa 0 mm - - -
1788122704 32.78° C 50% 989.6 hPa 0 mm - - -
1788121803 32.22° C 51% 989.6 hPa 0 mm - - -
1788120913 32.78° C 51% 989.8 hPa 0 mm - - -
1788120004 32.78° C 53% 990.2 hPa 0 mm - - -
1788119105 33.33° C 50% 990.4 hPa 0 mm - - -
1788118204 32.22° C 55% 990.5 hPa 0 mm - - -
1788117304 32.22° C 54% 990.7 hPa 0 mm - - -
1788116403 31.67° C 57% 990.9 hPa 0 mm - - -
1788115503 33.33° C 51% 991.1 hPa 0 mm - - -
1788114604 32.22° C 58% 991.2 hPa 0 mm - - -
1788113704 31.67° C 59% 991.3 hPa 0 mm - - -
1788112803 32.22° C 55% 991.4 hPa 0 mm - - -
1788111904 32.22° C 58% 991.5 hPa 0 mm - - -
1788111003 31.11° C 58% 991.7 hPa 0 mm - - -
1788110103 31.11° C 59% 991.8 hPa 0 mm - - -
1788109204 32.22° C 57% 992 hPa 0 mm - - -
1788108304 31.67° C 59% 992.1 hPa 0 mm - - -
1788107404 31.67° C 61% 992.2 hPa 0 mm - - -
1788106504 31.67° C 60% 992.3 hPa 0 mm - - -
1788105604 30.56° C 63% 992.4 hPa 0 mm - - -
1788104704 28.89° C 68% 992.4 hPa 0 mm - - -
1788103804 30° C 66% 992.4 hPa 0 mm - - -

* Rain latest hour (hover to see other rain measurements)
** Current wind speed in m/s (hover to see current wind gust speed)